This demonstration page uses our WeatherBlox Daily Observations layout. Learn more.

Left ArrowRight Arrow

30.21309, -93.2044

Hourly Observations for June 21, 2019

Temp ( °F °C ) Dew Point ( °F °C ) Humidity (%) Winds ( mph kmh ) Pressure ( in mb ) Visibility ( mi km ) Precip ( " mm )
12:15 am 00:15 Partly Cloudy 80 26.5 78 25.5 94 94 ESE 7 11 29.93 1014 10 16 0.00 0.00
12:35 am 00:35 Partly Cloudy 80 26.4 78 25.5 95 95 SE 6 9 29.92 1013 10 16 0.00 0.00
12:55 am 00:55 Partly Cloudy 79 26.3 78 25.5 95 95 SE 5 7 29.92 1013 10 16 0.00 0.00
1:15 am 01:15 Partly Cloudy 79 26 77 25.2 95 95 SE 5 7 29.92 1013 10 16 0.00 0.00
1:35 am 01:35 Partly Cloudy 78 25.8 77 25.1 96 96 ESE 7 11 29.91 1013 10 16 0.00 0.00
1:55 am 01:55 Clear 79 26.2 78 25.5 96 96 ESE 8 13 29.91 1013 10 16 0.00 0.00
2:15 am 02:15 Clear 80 26.5 78 25.5 94 94 ESE 8 13 29.91 1013 10 16 0.00 0.00
2:35 am 02:35 Clear 79 26.3 78 25.5 95 95 ESE 8 13 29.90 1013 10 16 0.00 0.00
2:55 am 02:55 Clear 79 26.3 78 25.4 95 95 ESE 8 13 29.90 1013 10 16 0.00 0.00
3:15 am 03:15 Clear 78 25.7 77 25 96 96 ESE 7 11 29.90 1013 10 16 0.00 0.00
3:35 am 03:35 Clear 79 26.1 78 25.5 97 97 SE 6 9 29.90 1013 10 16 0.00 0.00
3:55 am 03:55 Clear 79 26.1 78 25.5 97 97 SE 7 11 29.90 1013 10 16 0.00 0.00
4:15 am 04:15 Clear 79 26.3 78 25.7 97 97 SE 6 9 29.90 1013 10 16 0.00 0.00
4:35 am 04:35 Clear 80 26.4 78 25.7 96 96 SE 6 9 29.91 1013 10 16 0.00 0.00
4:55 am 04:55 Partly Cloudy 80 26.5 78 25.8 96 96 SE 6 9 29.91 1013 10 16 0.00 0.00
5:15 am 05:15 Partly Cloudy 80 26.5 78 25.8 96 96 ESE 8 13 29.92 1013 10 16 0.00 0.00
5:35 am 05:35 Partly Cloudy 79 26.3 78 25.7 97 97 SE 7 11 29.92 1013 10 16 0.00 0.00
6:00 am 06:00 Mostly Clear 79 26 79 26 100 100 ESE 8 13 29.93 1014 10 16 0.00 0.00
6:55 am 06:55 Partly Cloudy 81 27 79 26 94 94 ESE 8 13 29.95 1014 10 16 0.00 0.00
7:55 am 07:55 Partly Cloudy 84 29 81 27 89 89 S 8 13 29.95 1014 10 16 0.00 0.00
8:55 am 08:55 Mostly Cloudy 88 31 81 27 79 79 SSW 14 22 29.97 1015 10 16 0.00 0.00
9:45 am 09:45 Mostly Cloudy 90 32 79 26 71 71 S 12 19 29.97 1015 10 16 0.00 0.00
10:55 am 10:55 Mostly Cloudy 90 32 79 26 71 71 S 24 39 29.98 1015 10 16 0.00 0.00
11:45 am 11:45 Partly Cloudy 90 32 77 25 67 67 SSE 14 22 29.99 1016 10 16 0.00 0.00
12:45 pm 12:45 Partly Cloudy 90 32 75 24 63 63 SSE 14 22 29.99 1016 10 16 0.00 0.00
1:45 pm 13:45 Partly Cloudy 91 33 77 25 63 63 S 13 20 29.98 1015 10 16 0.00 0.00
2:45 pm 14:45 Mostly Cloudy 91 33 77 25 63 63 SSE 16 26 29.98 1015 10 16 0.00 0.00
3:45 pm 15:45 Mostly Cloudy 91 33 77 25 63 63 S 17 28 29.97 1015 10 16 0.00 0.00
4:50 pm 16:50 Mostly Cloudy 91 33 77 25 63 63 S 9 15 29.97 1015 10 16 0.00 0.00
5:50 pm 17:50 Mostly Cloudy 88 31 77 25 70 70 S 9 15 29.96 1015 10 16 0.00 0.00
6:50 pm 18:50 Mostly Cloudy 86 30 79 26 79 79 S 8 13 29.95 1014 10 16 0.00 0.00
7:50 pm 19:50 Mostly Sunny 84 29 79 26 84 84 SSE 9 15 29.94 1014 10 16 0.00 0.00
8:55 pm 20:55 Mostly Cloudy 84 29 79 26 84 84 S 7 11 29.95 1014 10 16 0.00 0.00
9:50 pm 21:50 Mostly Cloudy 82 28 81 27 94 94 S 7 11 29.96 1015 10 16 0.00 0.00
10:15 pm 22:15 Cloudy 83 28.5 80 26.6 89 89 SSE 7 11 29.97 1015 10 16 0.00 0.00
10:35 pm 22:35 Mostly Cloudy 83 28.5 80 26.7 90 90 SSE 9 15 29.97 1015 10 16 0.00 0.00
10:55 pm 22:55 Cloudy 83 28.5 80 26.7 90 90 SSE 8 13 29.97 1015 10 16 0.00 0.00
11:15 pm 23:15 Mostly Cloudy 83 28.3 80 26.6 91 91 SSE 9 15 29.97 1015 10 16 0.00 0.00
11:35 pm 23:35 Clear 83 28.2 80 26.6 91 91 SSE 8 13 29.97 1015 10 16 0.00 0.00
11:55 pm 23:55 Clear 83 28.1 80 26.5 91 91 SSE 6 9 29.97 1015 10 16 0.00 0.00

Powered by AerisWeather